| time (UTC) | temp C | wind direction | speed KPH | gust KPH | rain 1hr cm | rain 24hr cm | rain mn cm | humidity % | barometer mb |
| 20260506200047 | 27 | 3.2 | 12.9 | 0.00 | 0.00 | 0.00 | 30 | 1007.4 | |
| 20260506194547 | 27 | 1.6 | 16.1 | 0.00 | 0.00 | 0.00 | 31 | 1007.5 | |
| 20260506193042 | 27 | 3.2 | 9.7 | 0.00 | 0.00 | 0.00 | 32 | 1007.8 | |
| 20260506191542 | 26 | 1.6 | 9.7 | 0.00 | 0.00 | 0.00 | 31 | 1008.0 | |
| 20260506190037 | 26 | 0.0 | 8.0 | 0.00 | 0.00 | 0.00 | 33 | 1008.2 | |
| 20260506184545 | 25 | 3.2 | 11.3 | 0.00 | 0.00 | 0.00 | 34 | 1008.3 | |
| 20260506183038 | 23 | 1.6 | 9.7 | 0.00 | 0.00 | 0.00 | 37 | 1008.4 | |
| 20260506181537 | 23 | 1.6 | 9.7 | 0.00 | 0.00 | 0.00 | 38 | 1008.7 | |
| 20260506180027 | 22 | 0.0 | 8.0 | 0.00 | 0.00 | 0.00 | 39 | 1008.8 | |
| 20260506174525 | 21 | 0.0 | 8.0 | 0.00 | 0.00 | 0.00 | 45 | 1008.9 | |
| 20260506173020 | 20 | 6.4 | 11.3 | 0.00 | 0.00 | 0.00 | 50 | 1009.0 | |
| 20260506171519 | 18 | 3.2 | 14.5 | 0.00 | 0.00 | 0.00 | 49 | 1009.2 | |
| 20260506170018 | 18 | 8.0 | 16.1 | 0.00 | 0.00 | 0.00 | 49 | 1009.2 | |
| 20260506164518 | 18 | 8.0 | 14.5 | 0.00 | 0.00 | 0.00 | 50 | 1009.3 | |
| 20260506163018 | 17 | 6.4 | 14.5 | 0.00 | 0.00 | 0.00 | 52 | 1009.4 | |
| 20260506161518 | 16 | 11.3 | 16.1 | 0.00 | 0.00 | 0.00 | 53 | 1009.4 | |
| 20260506160017 | 16 | 6.4 | 12.9 | 0.00 | 0.00 | 0.00 | 54 | 1009.6 | |
| 20260506154515 | 16 | 6.4 | 12.9 | 0.00 | 0.00 | 0.00 | 57 | 1009.5 | |
| 20260506153020 | 16 | 6.4 | 11.3 | 0.00 | 0.00 | 0.00 | 57 | 1009.6 | |
| 20260506151515 | 15 | 4.8 | 11.3 | 0.00 | 0.00 | 0.00 | 59 | 1009.7 | |
| 20260506150014 | 14 | 6.4 | 11.3 | 0.00 | 0.00 | 0.00 | 62 | 1009.7 | |
| 20260506144516 | 15 | 6.4 | 11.3 | 0.00 | 0.00 | 0.00 | 64 | 1009.6 | |
| 20260506143014 | 15 | 3.2 | 6.4 | 0.00 | 0.00 | 0.00 | 59 | 1009.4 | |
| 20260506141509 | 15 | 0.0 | 6.4 | 0.00 | 0.00 | 0.00 | 60 | 1009.2 | |
| 20260506140011 | 15 | 0.0 | 4.8 | 0.00 | 0.00 | 0.00 | 59 | 1009.3 | |
| 20260506134507 | 14 | 0.0 | 4.8 | 0.00 | 0.00 | 0.00 | 61 | 1009.1 | |
| 20260506133006 | 14 | 0.0 | 0.0 | 0.00 | 0.00 | 0.00 | 61 | 1009.2 | |
| 20260506131505 | 13 | 0.0 | 0.0 | 0.00 | 0.00 | 0.00 | 62 | 1009.1 | |
| 20260506130003 | 13 | 0.0 | 0.0 | 0.00 | 0.00 | 0.00 | 64 | 1008.9 | |
| 20260506124501 | 12 | 0.0 | 0.0 | 0.00 | 0.00 | 0.00 | 65 | 1008.8 | |
| 20260506123101 | 12 | 0.0 | 0.0 | 0.00 | 0.00 | 0.00 | 63 | 1008.8 | |
| 20260506121555 | 13 | 0.0 | 1.6 | 0.00 | 0.00 | 0.00 | 60 | 1008.6 | |
| 20260506120053 | 14 | 0.0 | 6.4 | 0.00 | 0.00 | 0.00 | 58 | 1008.5 | |
| 20260506114553 | 14 | 3.2 | 6.4 | 0.00 | 0.00 | 0.00 | 58 | 1008.4 | |
| 20260506113051 | 14 | 0.0 | 3.2 | 0.00 | 0.00 | 0.00 | 58 | 1008.4 | |
| 20260506111548 | 14 | 0.0 | 3.2 | 0.00 | 0.00 | 0.00 | 59 | 1008.4 | |
| 20260506110045 | 15 | 0.0 | 0.0 | 0.00 | 0.00 | 0.00 | 56 | 1008.4 | |
| 20260506104543 | 15 | 0.0 | 0.0 | 0.00 | 0.00 | 0.00 | 55 | 1008.3 | |
| 20260506103051 | 15 | 0.0 | 4.8 | 0.00 | 0.00 | 0.00 | 54 | 1008.1 | |
| 20260506101538 | 16 | 0.0 | 8.0 | 0.00 | 0.00 | 0.00 | 53 | 1008.2 | |
| 20260506100038 | 16 | 3.2 | 6.4 | 0.00 | 0.00 | 0.00 | 53 | 1008.1 | |
| 20260506094538 | 16 | 0.0 | 9.7 | 0.00 | 0.00 | 0.00 | 52 | 1008.1 | |
| 20260506093032 | 16 | 0.0 | 0.0 | 0.00 | 0.00 | 0.00 | 52 | 1007.9 | |
| 20260506091530 | 16 | 0.0 | 6.4 | 0.00 | 0.00 | 0.00 | 51 | 1007.8 | |
| 20260506090029 | 17 | 0.0 | 6.4 | 0.00 | 0.00 | 0.00 | 48 | 1007.8 | |
| 20260506084522 | 17 | 0.0 | 4.8 | 0.00 | 0.00 | 0.00 | 46 | 1007.7 | |
| 20260506083020 | 18 | 1.6 | 3.2 | 0.00 | 0.00 | 0.00 | 44 | 1007.6 | |
| 20260506081520 | 19 | 0.0 | 0.0 | 0.00 | 0.00 | 0.00 | 43 | 1007.5 | |
| 20260506073011 | 20 | 0.0 | 0.0 | 0.00 | 0.00 | 0.00 | 41 | 1007.2 | |
| 20260506071509 | 20 | 0.0 | 0.0 | 0.00 | 0.00 | 0.00 | 41 | 1007.2 | |
| 20260506061505 | 21 | 0.0 | 6.4 | 0.00 | 0.00 | 0.00 | 38 | 1006.9 | |
| 20260506044601 | 22 | 4.8 | 11.3 | 0.00 | 0.00 | 0.00 | 35 | 1006.5 | |
| 20260506043102 | 21 | 1.6 | 11.3 | 0.00 | 0.00 | 0.00 | 37 | 1006.4 | |
| 20260506041605 | 21 | 0.0 | 1.6 | 0.00 | 0.00 | 0.00 | 37 | 1006.3 | |
| 20260506040059 | 22 | 0.0 | 4.8 | 0.00 | 0.00 | 0.00 | 33 | 1006.0 | |
| 20260506034615 | 22 | 3.2 | 8.0 | 0.00 | 0.00 | 0.00 | 34 | 1005.9 | |
| 20260506033058 | 23 | 0.0 | 0.0 | 0.00 | 0.00 | 0.00 | 32 | 1005.7 | |
| 20260506031608 | 24 | 4.8 | 8.0 | 0.00 | 0.00 | 0.00 | 30 | 1005.6 | |
| 20260506030057 | 24 | 0.0 | 0.0 | 0.00 | 0.00 | 0.00 | 30 | 1005.4 | |
| 20260506024616 | 25 | 0.0 | 0.0 | 0.00 | 0.00 | 0.00 | 28 | 1005.5 | |
| 20260506023056 | 26 | 0.0 | 0.0 | 0.00 | 0.00 | 0.00 | 26 | 1005.4 | |
| 20260506021557 | 27 | 0.0 | 0.0 | 0.00 | 0.00 | 0.00 | 26 | 1005.4 | |
| 20260506020057 | 26 | 0.0 | 0.0 | 0.00 | 0.00 | 0.00 | 27 | 1005.5 | |
| 20260506014555 | 26 | 0.0 | 6.4 | 0.00 | 0.00 | 0.00 | 27 | 1005.5 | |
| 20260506013107 | 26 | 3.2 | 6.4 | 0.00 | 0.00 | 0.00 | 26 | 1005.5 | |
| 20260506011604 | 27 | 3.2 | 6.4 | 0.00 | 0.00 | 0.00 | 25 | 1005.5 | |
| 20260506010045 | 29 | 0.0 | 0.0 | 0.00 | 0.00 | 0.00 | 23 | 1005.6 | |
| 20260506004541 | 28 | 0.0 | 4.8 | 0.00 | 0.00 | 0.00 | 24 | 1005.7 | |
| 20260506003038 | 28 | 0.0 | 8.0 | 0.00 | 0.00 | 0.00 | 24 | 1005.8 | |
| 20260506001537 | 27 | 0.0 | 9.7 | 0.00 | 0.00 | 0.00 | 25 | 1005.9 | |
| 20260506000033 | 28 | 0.0 | 8.0 | 0.00 | 0.00 | 0.00 | 24 | 1006.1 | |
| 20260505234535 | 27 | 0.0 | 9.7 | 0.00 | 0.00 | 0.00 | 24 | 1006.3 | |
| 20260505233028 | 28 | 0.0 | 0.0 | 0.00 | 0.00 | 0.00 | 24 | 1006.4 | |
| 20260505231527 | 27 | 8.0 | 16.1 | 0.00 | 0.00 | 0.00 | 24 | 1006.5 | |
| 20260505230041 | 28 | 0.0 | 6.4 | 0.00 | 0.00 | 0.00 | 25 | 1006.6 | |
| 20260505224524 | 28 | 0.0 | 8.0 | 0.00 | 0.00 | 0.00 | 24 | 1006.9 | |
| 20260505223025 | 27 | 0.0 | 11.3 | 0.00 | 0.00 | 0.00 | 25 | 1007.0 | |
| 20260505221519 | 27 | 8.0 | 12.9 | 0.00 | 0.00 | 0.00 | 25 | 1007.1 | |
| 20260505220019 | 26 | 6.4 | 16.1 | 0.00 | 0.00 | 0.00 | 24 | 1007.4 | |
| 20260505214519 | 27 | 1.6 | 12.9 | 0.00 | 0.00 | 0.00 | 25 | 1007.6 | |
| 20260505213014 | 26 | 3.2 | 17.7 | 0.00 | 0.00 | 0.00 | 26 | 1007.8 | |
| 20260505211513 | 26 | 3.2 | 9.7 | 0.00 | 0.00 | 0.00 | 24 | 1008.0 | |
| 20260505210011 | 26 | 1.6 | 12.9 | 0.00 | 0.00 | 0.00 | 25 | 1008.2 | |
| 20260505204508 | 25 | 8.0 | 20.9 | 0.00 | 0.00 | 0.00 | 26 | 1008.4 | |
| 20260505203007 | 25 | 8.0 | 17.7 | 0.00 | 0.00 | 0.00 | 27 | 1008.5 |